Time,TemperatureF,DewpointF,PressureIn,WindDirection,WindDirectionDegrees,WindSpeedMPH,WindSpeedGustMPH,Humidity,HourlyPrecipIn,Conditions,Clouds,dailyrainin,SoftwareType,DateUTC
2013-05-14 00:01:00,55.0,32.4,30.06,SW,225,2.0,5.0,42,0.00,,,0.00,meteohub,2013-05-14 05:01:00,
2013-05-14 00:06:00,55.2,32.5,30.06,SE,135,2.0,5.0,42,0.00,,,0.00,meteohub,2013-05-14 05:06:00,
2013-05-14 00:11:00,55.2,32.5,30.03,SE,135,5.0,5.0,42,0.00,,,0.00,meteohub,2013-05-14 05:11:00,
2013-05-14 00:16:00,55.2,32.5,30.03,SSE,158,3.0,6.0,42,0.00,,,0.00,meteohub,2013-05-14 05:16:00,
2013-05-14 00:22:00,55.4,32.7,30.03,ESE,112,4.0,6.0,42,0.00,,,0.00,meteohub,2013-05-14 05:22:00,
2013-05-14 00:27:00,55.2,32.5,30.03,SE,135,3.0,6.0,42,0.00,,,0.00,meteohub,2013-05-14 05:27:00,
2013-05-14 00:32:00,55.4,32.7,30.03,SSE,158,3.0,6.0,42,0.00,,,0.00,meteohub,2013-05-14 05:32:00,
2013-05-14 00:37:00,55.6,32.9,30.03,SSE,158,0.0,6.0,42,0.00,,,0.00,meteohub,2013-05-14 05:37:00,
2013-05-14 00:42:00,55.6,32.9,30.03,SE,135,2.0,6.0,42,0.00,,,0.00,meteohub,2013-05-14 05:42:00,
2013-05-14 00:47:00,55.6,32.9,30.03,SSE,158,0.0,7.0,42,0.00,,,0.00,meteohub,2013-05-14 05:47:00,
2013-05-14 00:52:00,55.8,33.1,30.03,East,90,5.0,7.0,42,0.00,,,0.00,meteohub,2013-05-14 05:52:00,
2013-05-14 00:57:00,55.8,33.1,30.00,SSE,158,0.0,7.0,42,0.00,,,0.00,meteohub,2013-05-14 05:57:00,
2013-05-14 01:02:00,55.9,33.3,30.00,SSW,202,2.0,6.0,42,0.00,,,0.00,meteohub,2013-05-14 06:02:00,
2013-05-14 01:07:00,55.9,33.3,30.00,SSE,158,2.0,5.0,42,0.00,,,0.00,meteohub,2013-05-14 06:07:00,
2013-05-14 01:12:00,55.9,33.3,30.00,SSE,158,2.0,5.0,42,0.00,,,0.00,meteohub,2013-05-14 06:12:00,
2013-05-14 01:17:00,56.3,33.6,30.00,SSW,202,0.0,5.0,42,0.00,,,0.00,meteohub,2013-05-14 06:17:00,
2013-05-14 01:22:00,56.5,33.6,30.00,SSE,158,3.0,5.0,42,0.00,,,0.00,meteohub,2013-05-14 06:22:00,
2013-05-14 01:27:00,56.5,33.6,30.00,East,90,2.0,7.0,42,0.00,,,0.00,meteohub,2013-05-14 06:27:00,
2013-05-14 01:32:00,56.7,33.8,30.00,SSW,202,6.0,7.0,42,0.00,,,0.00,meteohub,2013-05-14 06:32:00,
2013-05-14 01:37:00,56.5,33.6,30.00,SSE,158,10.0,10.0,42,0.00,,,0.00,meteohub,2013-05-14 06:37:00,
2013-05-14 01:42:00,56.7,33.8,30.00,SW,225,0.0,10.0,42,0.00,,,0.00,meteohub,2013-05-14 06:42:00,
2013-05-14 01:47:00,56.5,33.6,30.00,SE,135,4.0,10.0,42,0.00,,,0.00,meteohub,2013-05-14 06:47:00,
2013-05-14 01:52:00,56.5,33.6,30.00,South,180,5.0,10.0,42,0.00,,,0.00,meteohub,2013-05-14 06:52:00,
2013-05-14 01:57:00,56.3,33.6,30.00,SSW,202,2.0,8.0,42,0.00,,,0.00,meteohub,2013-05-14 06:57:00,
2013-05-14 02:02:00,56.3,33.6,30.00,South,180,4.0,5.0,42,0.00,,,0.00,meteohub,2013-05-14 07:02:00,
2013-05-14 02:07:00,56.1,33.4,30.00,SE,135,3.0,5.0,42,0.00,,,0.00,meteohub,2013-05-14 07:07:00,
2013-05-14 02:12:00,56.1,33.4,30.00,South,180,2.0,5.0,42,0.00,,,0.00,meteohub,2013-05-14 07:12:00,
2013-05-14 02:17:00,56.1,34.0,30.00,SSE,158,7.0,7.0,43,0.00,,,0.00,meteohub,2013-05-14 07:17:00,
2013-05-14 02:22:00,55.9,33.8,30.00,SE,135,3.0,7.0,43,0.00,,,0.00,meteohub,2013-05-14 07:22:00,
2013-05-14 02:27:00,55.9,33.8,30.00,South,180,3.0,7.0,43,0.00,,,0.00,meteohub,2013-05-14 07:27:00,
2013-05-14 02:32:00,55.9,33.8,30.00,SE,135,0.0,7.0,43,0.00,,,0.00,meteohub,2013-05-14 07:32:00,
2013-05-14 02:37:00,55.8,33.6,30.00,SSE,158,2.0,5.0,43,0.00,,,0.00,meteohub,2013-05-14 07:37:00,
2013-05-14 02:42:00,55.8,33.6,29.97,East,90,0.0,5.0,43,0.00,,,0.00,meteohub,2013-05-14 07:42:00,
2013-05-14 02:47:00,55.8,33.6,29.97,SSW,202,6.0,6.0,43,0.00,,,0.00,meteohub,2013-05-14 07:47:00,
2013-05-14 02:52:00,55.8,33.6,29.97,NNW,338,6.0,6.0,43,0.00,,,0.00,meteohub,2013-05-14 07:52:00,
2013-05-14 02:57:00,55.9,34.3,29.94,SE,135,2.0,6.0,44,0.00,,,0.00,meteohub,2013-05-14 07:57:00,
2013-05-14 03:02:00,55.9,34.3,29.94,SE,135,3.0,6.0,44,0.00,,,0.00,meteohub,2013-05-14 08:02:00,
2013-05-14 03:07:00,55.9,34.3,29.94,East,90,0.0,8.0,44,0.00,,,0.00,meteohub,2013-05-14 08:07:00,
2013-05-14 03:12:00,56.1,34.5,29.94,SW,225,4.0,8.0,44,0.00,,,0.00,meteohub,2013-05-14 08:12:00,
2013-05-14 03:17:00,56.3,34.7,29.94,SSW,202,2.0,8.0,44,0.00,,,0.00,meteohub,2013-05-14 08:17:00,
2013-05-14 03:22:00,56.3,34.7,29.94,SE,135,5.0,10.0,44,0.00,,,0.00,meteohub,2013-05-14 08:22:00,
2013-05-14 03:27:00,56.3,34.7,29.94,South,180,4.0,10.0,44,0.00,,,0.00,meteohub,2013-05-14 08:27:00,
2013-05-14 03:32:00,56.3,34.7,29.94,SSW,202,5.0,10.0,44,0.00,,,0.00,meteohub,2013-05-14 08:32:00,
2013-05-14 03:37:00,56.3,35.2,29.94,WNW,292,2.0,11.0,45,0.00,,,0.00,meteohub,2013-05-14 08:37:00,
2013-05-14 03:42:00,56.3,35.2,29.94,SSW,202,3.0,11.0,45,0.00,,,0.00,meteohub,2013-05-14 08:42:00,
2013-05-14 03:47:00,56.3,35.2,29.94,SE,135,2.0,11.0,45,0.00,,,0.00,meteohub,2013-05-14 08:47:00,
2013-05-14 03:52:00,56.5,35.4,29.94,South,180,2.0,7.0,45,0.00,,,0.00,meteohub,2013-05-14 08:52:00,
2013-05-14 03:57:00,56.3,35.2,29.94,WNW,292,7.0,7.0,45,0.00,,,0.00,meteohub,2013-05-14 08:57:00,
2013-05-14 04:02:00,56.3,35.2,29.94,SSE,158,0.0,7.0,45,0.00,,,0.00,meteohub,2013-05-14 09:02:00,
2013-05-14 04:07:00,56.3,35.8,29.94,SSE,158,3.0,7.0,46,0.00,,,0.00,meteohub,2013-05-14 09:07:00,
2013-05-14 04:12:00,56.1,35.1,29.91,SW,225,6.0,7.0,45,0.00,,,0.00,meteohub,2013-05-14 09:12:00,
2013-05-14 04:17:00,56.1,35.6,29.91,ESE,112,4.0,10.0,46,0.00,,,0.00,meteohub,2013-05-14 09:17:00,
2013-05-14 04:22:00,56.1,35.6,29.91,SE,135,2.0,10.0,46,0.00,,,0.00,meteohub,2013-05-14 09:22:00,
2013-05-14 04:27:00,56.1,35.6,29.91,WSW,248,0.0,10.0,46,0.00,,,0.00,meteohub,2013-05-14 09:27:00,
2013-05-14 04:32:00,56.1,35.6,29.91,ESE,112,6.0,6.0,46,0.00,,,0.00,meteohub,2013-05-14 09:32:00,
2013-05-14 04:37:00,56.1,35.6,29.91,NW,315,3.0,6.0,46,0.00,,,0.00,meteohub,2013-05-14 09:37:00,
2013-05-14 04:42:00,56.1,36.1,29.91,WSW,248,3.0,8.0,47,0.00,,,0.00,meteohub,2013-05-14 09:42:00,
2013-05-14 04:47:00,56.1,36.1,29.91,South,180,6.0,8.0,47,0.00,,,0.00,meteohub,2013-05-14 09:47:00,
2013-05-14 04:52:00,56.3,35.8,29.91,WNW,292,3.0,6.0,46,0.00,,,0.00,meteohub,2013-05-14 09:52:00,
2013-05-14 04:57:00,56.1,36.1,29.91,WNW,292,3.0,6.0,47,0.00,,,0.00,meteohub,2013-05-14 09:57:00,
2013-05-14 05:02:00,56.3,36.3,29.91,SSE,158,6.0,8.0,47,0.00,,,0.00,meteohub,2013-05-14 10:02:00,
2013-05-14 05:07:00,56.5,37.0,29.91,West,270,3.0,8.0,48,0.00,,,0.00,meteohub,2013-05-14 10:07:00,
2013-05-14 05:12:00,56.5,37.0,29.88,SW,225,4.0,8.0,48,0.00,,,0.00,meteohub,2013-05-14 10:12:00,
2013-05-14 05:17:00,56.7,37.2,29.88,SW,225,4.0,13.0,48,0.00,,,0.00,meteohub,2013-05-14 10:17:00,
2013-05-14 05:22:00,56.7,37.2,29.88,SSW,202,7.0,13.0,48,0.00,,,0.00,meteohub,2013-05-14 10:22:00,
2013-05-14 05:27:00,56.7,37.2,29.88,SE,135,8.0,13.0,48,0.00,,,0.00,meteohub,2013-05-14 10:27:00,
2013-05-14 05:32:00,56.7,37.2,29.88,South,180,5.0,13.0,48,0.00,,,0.00,meteohub,2013-05-14 10:32:00,
2013-05-14 05:37:00,56.7,37.8,29.88,South,180,7.0,13.0,49,0.00,,,0.00,meteohub,2013-05-14 10:37:00,
2013-05-14 05:42:00,56.7,37.8,29.88,NNW,338,3.0,13.0,49,0.00,,,0.00,meteohub,2013-05-14 10:42:00,
2013-05-14 05:47:00,56.7,37.8,29.88,ENE,68,4.0,9.0,49,0.00,,,0.00,meteohub,2013-05-14 10:47:00,
2013-05-14 05:52:00,56.7,37.8,29.88,SSE,158,5.0,12.0,49,0.00,,,0.00,meteohub,2013-05-14 10:52:00,
2013-05-14 05:57:00,56.7,38.3,29.88,South,180,9.0,12.0,50,0.00,,,0.00,meteohub,2013-05-14 10:57:00,
2013-05-14 06:02:00,56.7,38.8,29.88,South,180,7.0,12.0,51,0.00,,,0.00,meteohub,2013-05-14 11:02:00,
2013-05-14 06:07:00,56.7,38.8,29.88,South,180,4.0,9.0,51,0.00,,,0.00,meteohub,2013-05-14 11:07:00,
2013-05-14 06:12:00,56.7,38.8,29.85,South,180,3.0,10.0,51,0.00,,,0.00,meteohub,2013-05-14 11:12:00,
2013-05-14 06:17:00,56.7,38.8,29.85,SSE,158,7.0,10.0,51,0.00,,,0.00,meteohub,2013-05-14 11:17:00,
2013-05-14 06:22:00,56.7,38.8,29.85,South,180,5.0,10.0,51,0.00,,,0.00,meteohub,2013-05-14 11:22:00,
2013-05-14 06:27:00,56.8,39.4,29.88,South,180,7.0,9.0,52,0.00,,,0.00,meteohub,2013-05-14 11:27:00,
2013-05-14 06:32:00,57.0,39.6,29.88,South,180,3.0,9.0,52,0.00,,,0.00,meteohub,2013-05-14 11:32:00,
2013-05-14 06:37:00,57.2,39.7,29.88,SSW,202,4.0,10.0,52,0.00,,,0.00,meteohub,2013-05-14 11:37:00,
2013-05-14 06:42:00,57.6,40.6,29.88,SSW,202,5.0,10.0,53,0.00,,,0.00,meteohub,2013-05-14 11:42:00,
2013-05-14 06:47:00,57.9,41.0,29.88,WSW,248,6.0,13.0,53,0.00,,,0.00,meteohub,2013-05-14 11:47:00,
2013-05-14 06:52:00,58.1,41.0,29.88,NW,315,8.0,13.0,53,0.00,,,0.00,meteohub,2013-05-14 11:52:00,
2013-05-14 06:57:00,58.5,41.9,29.88,SSW,202,5.0,13.0,54,0.00,,,0.00,meteohub,2013-05-14 11:57:00,
2013-05-14 07:02:00,58.6,42.1,29.88,NE,45,6.0,12.0,54,0.00,,,0.00,meteohub,2013-05-14 12:02:00,
2013-05-14 07:07:00,59.0,41.9,29.88,WSW,248,0.0,12.0,53,0.00,,,0.00,meteohub,2013-05-14 12:07:00,
2013-05-14 07:11:00,59.2,42.1,29.88,WNW,292,6.0,12.0,53,0.00,,,0.00,meteohub,2013-05-14 12:11:00,
2013-05-14 07:17:00,59.5,43.0,29.88,South,180,3.0,12.0,54,0.00,,,0.00,meteohub,2013-05-14 12:17:00,
2013-05-14 07:22:00,59.7,43.0,29.88,East,90,4.0,10.0,54,0.00,,,0.00,meteohub,2013-05-14 12:22:00,
2013-05-14 07:27:00,59.9,43.2,29.88,ENE,68,5.0,10.0,54,0.00,,,0.00,meteohub,2013-05-14 12:27:00,
2013-05-14 07:32:00,60.3,43.5,29.88,NW,315,7.0,10.0,54,0.00,,,0.00,meteohub,2013-05-14 12:32:00,
2013-05-14 07:37:00,60.6,43.9,29.88,West,270,2.0,11.0,54,0.00,,,0.00,meteohub,2013-05-14 12:37:00,
2013-05-14 07:42:00,60.8,44.1,29.88,West,270,3.0,11.0,54,0.00,,,0.00,meteohub,2013-05-14 12:42:00,
2013-05-14 07:47:00,61.2,44.4,29.88,WSW,248,11.0,13.0,54,0.00,,,0.00,meteohub,2013-05-14 12:47:00,
2013-05-14 07:52:00,61.2,44.4,29.88,SSE,158,8.0,13.0,54,0.00,,,0.00,meteohub,2013-05-14 12:52:00,
2013-05-14 07:57:00,61.7,45.0,29.88,West,270,9.0,11.0,54,0.00,,,0.00,meteohub,2013-05-14 12:57:00,
2013-05-14 08:02:00,61.7,45.0,29.88,WNW,292,3.0,11.0,54,0.00,,,0.00,meteohub,2013-05-14 13:02:00,
2013-05-14 08:07:00,62.1,45.3,29.88,WNW,292,9.0,10.0,54,0.00,,,0.00,meteohub,2013-05-14 13:07:00,
2013-05-14 08:12:00,62.2,45.3,29.88,West,270,0.0,10.0,54,0.00,,,0.00,meteohub,2013-05-14 13:12:00,
2013-05-14 08:17:00,62.6,45.7,29.88,SW,225,7.0,10.0,54,0.00,,,0.00,meteohub,2013-05-14 13:17:00,
2013-05-14 08:22:00,62.8,45.9,29.88,SW,225,5.0,14.0,54,0.00,,,0.00,meteohub,2013-05-14 13:22:00,
2013-05-14 08:27:00,63.0,46.0,29.88,SW,225,8.0,14.0,54,0.00,,,0.00,meteohub,2013-05-14 13:27:00,
2013-05-14 08:32:00,63.3,46.9,29.88,SW,225,4.0,14.0,55,0.00,,,0.00,meteohub,2013-05-14 13:32:00,
2013-05-14 08:37:00,63.3,46.4,29.88,South,180,4.0,16.0,54,0.00,,,0.00,meteohub,2013-05-14 13:37:00,
2013-05-14 08:42:00,63.9,47.5,29.88,West,270,14.0,16.0,55,0.00,,,0.00,meteohub,2013-05-14 13:42:00,
2013-05-14 08:47:00,64.0,47.5,29.88,SSW,202,16.0,16.0,55,0.00,,,0.00,meteohub,2013-05-14 13:47:00,
2013-05-14 08:52:00,64.2,47.3,29.88,WSW,248,10.0,18.0,54,0.00,,,0.00,meteohub,2013-05-14 13:52:00,
2013-05-14 08:57:00,64.6,48.0,29.88,WSW,248,16.0,18.0,55,0.00,,,0.00,meteohub,2013-05-14 13:57:00,
2013-05-14 09:02:00,64.9,47.8,29.88,SE,135,8.0,18.0,54,0.00,,,0.00,meteohub,2013-05-14 14:02:00,
2013-05-14 09:07:00,65.1,48.6,29.88,NNE,22,5.0,20.0,55,0.00,,,0.00,meteohub,2013-05-14 14:07:00,
2013-05-14 09:12:00,65.3,48.2,29.88,West,270,9.0,20.0,54,0.00,,,0.00,meteohub,2013-05-14 14:12:00,
2013-05-14 09:17:00,65.7,48.6,29.88,WSW,248,8.0,18.0,54,0.00,,,0.00,meteohub,2013-05-14 14:17:00,
2013-05-14 09:22:00,65.8,48.7,29.88,WSW,248,9.0,16.0,54,0.00,,,0.00,meteohub,2013-05-14 14:22:00,
2013-05-14 09:27:00,66.0,48.9,29.88,SW,225,9.0,13.0,54,0.00,,,0.00,meteohub,2013-05-14 14:27:00,
2013-05-14 09:32:00,66.2,48.6,29.88,WSW,248,5.0,13.0,53,0.00,,,0.00,meteohub,2013-05-14 14:32:00,
2013-05-14 09:37:00,66.4,48.7,29.88,WNW,292,5.0,13.0,53,0.00,,,0.00,meteohub,2013-05-14 14:37:00,
2013-05-14 09:42:00,66.7,49.1,29.88,WNW,292,3.0,13.0,53,0.00,,,0.00,meteohub,2013-05-14 14:42:00,
2013-05-14 09:47:00,67.1,49.5,29.88,WSW,248,13.0,14.0,53,0.00,,,0.00,meteohub,2013-05-14 14:47:00,
2013-05-14 09:52:00,67.3,49.6,29.88,West,270,10.0,14.0,53,0.00,,,0.00,meteohub,2013-05-14 14:52:00,
2013-05-14 09:57:00,67.5,49.8,29.88,WSW,248,8.0,13.0,53,0.00,,,0.00,meteohub,2013-05-14 14:57:00,
2013-05-14 10:02:00,67.8,49.6,29.88,West,270,4.0,13.0,52,0.00,,,0.00,meteohub,2013-05-14 15:02:00,
2013-05-14 10:07:00,68.2,50.4,29.88,NW,315,8.0,10.0,53,0.00,,,0.00,meteohub,2013-05-14 15:07:00,
2013-05-14 10:12:00,68.7,50.9,29.88,WSW,248,5.0,12.0,53,0.00,,,0.00,meteohub,2013-05-14 15:12:00,
2013-05-14 10:17:00,68.9,50.5,29.88,South,180,10.0,14.0,52,0.00,,,0.00,meteohub,2013-05-14 15:17:00,
2013-05-14 10:22:00,69.3,50.9,29.88,SW,225,2.0,14.0,52,0.00,,,0.00,meteohub,2013-05-14 15:22:00,
2013-05-14 10:27:00,69.6,50.7,29.85,SSE,158,6.0,14.0,51,0.00,,,0.00,meteohub,2013-05-14 15:27:00,
2013-05-14 10:32:00,69.8,50.4,29.85,WNW,292,6.0,13.0,50,0.00,,,0.00,meteohub,2013-05-14 15:32:00,
2013-05-14 10:37:00,70.2,50.2,29.85,West,270,2.0,13.0,49,0.00,,,0.00,meteohub,2013-05-14 15:37:00,
2013-05-14 10:42:00,70.5,50.5,29.88,SSE,158,5.0,13.0,49,0.00,,,0.00,meteohub,2013-05-14 15:42:00,
2013-05-14 10:47:00,70.7,50.5,29.88,WSW,248,5.0,13.0,49,0.00,,,0.00,meteohub,2013-05-14 15:47:00,
2013-05-14 10:52:00,71.1,50.9,29.88,West,270,4.0,13.0,49,0.00,,,0.00,meteohub,2013-05-14 15:52:00,
2013-05-14 10:57:00,71.2,50.5,29.88,WNW,292,9.0,12.0,48,0.00,,,0.00,meteohub,2013-05-14 15:57:00,
2013-05-14 11:02:00,71.8,49.8,29.88,WSW,248,5.0,12.0,46,0.00,,,0.00,meteohub,2013-05-14 16:02:00,
2013-05-14 11:07:00,72.0,50.7,29.88,WSW,248,5.0,14.0,47,0.00,,,0.00,meteohub,2013-05-14 16:07:00,
2013-05-14 11:13:00,72.1,50.9,29.88,West,270,5.0,14.0,47,0.00,,,0.00,meteohub,2013-05-14 16:13:00,
2013-05-14 11:18:00,72.7,51.3,29.88,WNW,292,0.0,14.0,47,0.00,,,0.00,meteohub,2013-05-14 16:18:00,
2013-05-14 11:23:00,72.9,51.4,29.88,South,180,8.0,14.0,47,0.00,,,0.00,meteohub,2013-05-14 16:23:00,
2013-05-14 11:28:00,73.2,51.3,29.88,WSW,248,7.0,12.0,46,0.00,,,0.00,meteohub,2013-05-14 16:28:00,
2013-05-14 11:33:00,73.6,51.6,29.88,West,270,8.0,13.0,46,0.00,,,0.00,meteohub,2013-05-14 16:33:00,
2013-05-14 11:38:00,73.8,51.6,29.88,WSW,248,10.0,13.0,46,0.00,,,0.00,meteohub,2013-05-14 16:38:00,
2013-05-14 11:43:00,73.9,51.3,29.88,WSW,248,9.0,13.0,45,0.00,,,0.00,meteohub,2013-05-14 16:43:00,
2013-05-14 11:48:00,74.5,51.1,29.88,WNW,292,5.0,11.0,44,0.00,,,0.00,meteohub,2013-05-14 16:48:00,
2013-05-14 11:53:00,75.0,50.4,29.88,NW,315,8.0,11.0,42,0.00,,,0.00,meteohub,2013-05-14 16:53:00,
2013-05-14 11:58:00,75.4,51.3,29.88,SW,225,17.0,17.0,43,0.00,,,0.00,meteohub,2013-05-14 16:58:00,
2013-05-14 12:03:00,75.7,51.1,29.88,West,270,10.0,17.0,42,0.00,,,0.00,meteohub,2013-05-14 17:03:00,
2013-05-14 12:08:00,75.7,50.4,29.88,WSW,248,10.0,17.0,41,0.00,,,0.00,meteohub,2013-05-14 17:08:00,
2013-05-14 12:13:00,76.1,50.7,29.88,West,270,6.0,17.0,41,0.00,,,0.00,meteohub,2013-05-14 17:13:00,
2013-05-14 12:18:00,76.3,50.9,29.88,WSW,248,12.0,13.0,41,0.00,,,0.00,meteohub,2013-05-14 17:18:00,
2013-05-14 12:23:00,76.8,51.3,29.88,WNW,292,10.0,14.0,41,0.00,,,0.00,meteohub,2013-05-14 17:23:00,
2013-05-14 12:28:00,77.0,51.4,29.88,West,270,8.0,14.0,41,0.00,,,0.00,meteohub,2013-05-14 17:28:00,
2013-05-14 12:33:00,77.4,51.1,29.88,WSW,248,7.0,14.0,40,0.00,,,0.00,meteohub,2013-05-14 17:33:00,
2013-05-14 12:38:00,77.7,51.4,29.88,WNW,292,8.0,14.0,40,0.00,,,0.00,meteohub,2013-05-14 17:38:00,
2013-05-14 12:43:00,77.9,48.7,29.88,West,270,6.0,14.0,36,0.00,,,0.00,meteohub,2013-05-14 17:43:00,
2013-05-14 12:48:00,78.4,50.0,29.88,West,270,7.0,14.0,37,0.00,,,0.00,meteohub,2013-05-14 17:48:00,
2013-05-14 12:53:00,78.8,48.9,29.88,West,270,14.0,18.0,35,0.00,,,0.00,meteohub,2013-05-14 17:53:00,
2013-05-14 12:58:00,79.3,49.3,29.88,WSW,248,5.0,18.0,35,0.00,,,0.00,meteohub,2013-05-14 17:58:00,
2013-05-14 13:03:00,79.3,49.3,29.88,WSW,248,5.0,18.0,35,0.00,,,0.00,meteohub,2013-05-14 18:03:00,
2013-05-14 13:08:00,79.7,47.3,29.88,WSW,248,9.0,18.0,32,0.00,,,0.00,meteohub,2013-05-14 18:08:00,
2013-05-14 13:13:00,79.7,48.9,29.88,WSW,248,4.0,13.0,34,0.00,,,0.00,meteohub,2013-05-14 18:13:00,
2013-05-14 13:18:00,80.1,48.4,29.88,West,270,4.0,13.0,33,0.00,,,0.00,meteohub,2013-05-14 18:18:00,
2013-05-14 13:23:00,80.2,47.7,29.88,West,270,6.0,13.0,32,0.00,,,0.00,meteohub,2013-05-14 18:23:00,
2013-05-14 13:28:00,80.8,47.3,29.88,West,270,10.0,10.0,31,0.00,,,0.00,meteohub,2013-05-14 18:28:00,
2013-05-14 13:33:00,81.1,47.7,29.88,SW,225,9.0,16.0,31,0.00,,,0.00,meteohub,2013-05-14 18:33:00,
2013-05-14 13:39:00,81.1,47.7,29.88,West,270,8.0,16.0,31,0.00,,,0.00,meteohub,2013-05-14 18:39:00,
2013-05-14 13:44:00,81.1,47.7,29.88,SSE,158,2.0,16.0,31,0.00,,,0.00,meteohub,2013-05-14 18:44:00,
2013-05-14 13:49:00,81.1,47.7,29.88,West,270,6.0,13.0,31,0.00,,,0.00,meteohub,2013-05-14 18:49:00,
2013-05-14 13:54:00,81.7,47.3,29.85,WSW,248,6.0,12.0,30,0.00,,,0.00,meteohub,2013-05-14 18:54:00,
2013-05-14 13:59:00,82.0,43.9,29.85,West,270,12.0,13.0,26,0.00,,,0.00,meteohub,2013-05-14 18:59:00,
2013-05-14 14:04:00,82.6,44.2,29.85,West,270,7.0,16.0,26,0.00,,,0.00,meteohub,2013-05-14 19:04:00,
2013-05-14 14:09:00,82.4,44.1,29.85,West,270,5.0,17.0,26,0.00,,,0.00,meteohub,2013-05-14 19:09:00,
2013-05-14 14:14:00,82.6,47.1,29.85,West,270,6.0,17.0,29,0.00,,,0.00,meteohub,2013-05-14 19:14:00,
2013-05-14 14:19:00,82.6,47.1,29.85,WSW,248,0.0,17.0,29,0.00,,,0.00,meteohub,2013-05-14 19:19:00,
2013-05-14 14:24:00,82.6,44.2,29.85,SW,225,2.0,9.0,26,0.00,,,0.00,meteohub,2013-05-14 19:24:00,
2013-05-14 14:29:00,83.1,42.6,29.85,WSW,248,6.0,10.0,24,0.00,,,0.00,meteohub,2013-05-14 19:29:00,
2013-05-14 14:34:00,83.3,42.8,29.85,SW,225,7.0,10.0,24,0.00,,,0.00,meteohub,2013-05-14 19:34:00,
2013-05-14 14:39:00,83.3,41.7,29.85,WSW,248,0.0,10.0,23,0.00,,,0.00,meteohub,2013-05-14 19:39:00,
2013-05-14 14:44:00,83.1,42.6,29.85,West,270,4.0,10.0,24,0.00,,,0.00,meteohub,2013-05-14 19:44:00,
2013-05-14 14:49:00,83.3,42.8,29.85,West,270,3.0,10.0,24,0.00,,,0.00,meteohub,2013-05-14 19:49:00,
2013-05-14 14:54:00,83.5,41.9,29.82,WSW,248,4.0,10.0,23,0.00,,,0.00,meteohub,2013-05-14 19:54:00,
2013-05-14 14:59:00,83.5,41.9,29.82,WNW,292,4.0,10.0,23,0.00,,,0.00,meteohub,2013-05-14 19:59:00,
2013-05-14 15:04:00,83.1,41.5,29.82,WSW,248,0.0,10.0,23,0.00,,,0.00,meteohub,2013-05-14 20:04:00,
2013-05-14 15:09:00,83.5,40.6,29.82,WNW,292,5.0,8.0,22,0.00,,,0.00,meteohub,2013-05-14 20:09:00,
2013-05-14 15:14:00,84.0,41.2,29.82,North,0,0.0,8.0,22,0.00,,,0.00,meteohub,2013-05-14 20:14:00,
2013-05-14 15:19:00,84.2,40.1,29.82,West,270,9.0,9.0,21,0.00,,,0.00,meteohub,2013-05-14 20:19:00,
2013-05-14 15:24:00,84.4,40.3,29.82,West,270,7.0,9.0,21,0.00,,,0.00,meteohub,2013-05-14 20:24:00,
2013-05-14 15:29:00,84.6,40.3,29.82,NE,45,5.0,9.0,21,0.00,,,0.00,meteohub,2013-05-14 20:29:00,
2013-05-14 15:34:00,84.7,40.5,29.82,West,270,11.0,11.0,21,0.00,,,0.00,meteohub,2013-05-14 20:34:00,
2013-05-14 15:39:00,85.1,40.8,29.82,NW,315,6.0,12.0,21,0.00,,,0.00,meteohub,2013-05-14 20:39:00,
2013-05-14 15:44:00,84.9,40.6,29.82,West,270,0.0,14.0,21,0.00,,,0.00,meteohub,2013-05-14 20:44:00,
2013-05-14 15:49:00,84.9,41.9,29.82,ENE,68,0.0,14.0,22,0.00,,,0.00,meteohub,2013-05-14 20:49:00,
2013-05-14 15:54:00,84.9,41.9,29.79,SE,135,0.0,14.0,22,0.00,,,0.00,meteohub,2013-05-14 20:54:00,
2013-05-14 15:59:00,84.7,40.5,29.79,WNW,292,0.0,0.0,21,0.00,,,0.00,meteohub,2013-05-14 20:59:00,
2013-05-14 16:04:00,84.9,40.6,29.79,WNW,292,4.0,4.0,21,0.00,,,0.00,meteohub,2013-05-14 21:04:00,
2013-05-14 16:09:00,84.9,40.6,29.82,NW,315,0.0,5.0,21,0.00,,,0.00,meteohub,2013-05-14 21:09:00,
2013-05-14 16:15:00,84.7,40.5,29.82,NW,315,0.0,5.0,21,0.00,,,0.00,meteohub,2013-05-14 21:15:00,
2013-05-14 16:20:00,84.9,41.9,29.82,NW,315,0.0,5.0,22,0.00,,,0.00,meteohub,2013-05-14 21:20:00,
2013-05-14 16:25:00,85.3,42.1,29.82,SW,225,2.0,0.0,22,0.00,,,0.00,meteohub,2013-05-14 21:25:00,
2013-05-14 16:30:00,85.5,43.5,29.82,South,180,2.0,2.0,23,0.00,,,0.00,meteohub,2013-05-14 21:30:00,
2013-05-14 16:35:00,86.0,42.8,29.82,South,180,3.0,4.0,22,0.00,,,0.00,meteohub,2013-05-14 21:35:00,
2013-05-14 16:40:00,86.2,43.0,29.79,SW,225,3.0,5.0,22,0.00,,,0.00,meteohub,2013-05-14 21:40:00,
2013-05-14 16:45:00,86.4,43.0,29.79,SSE,158,8.0,8.0,22,0.00,,,0.00,meteohub,2013-05-14 21:45:00,
2013-05-14 16:50:00,86.5,42.1,29.79,SSE,158,4.0,6.0,21,0.00,,,0.00,meteohub,2013-05-14 21:50:00,
2013-05-14 16:55:00,86.5,43.2,29.79,SSW,202,3.0,9.0,22,0.00,,,0.00,meteohub,2013-05-14 21:55:00,
2013-05-14 17:00:00,86.5,42.1,29.79,South,180,2.0,9.0,21,0.00,,,0.00,meteohub,2013-05-14 22:00:00,
2013-05-14 17:05:00,86.7,42.1,29.79,SSE,158,5.0,9.0,21,0.00,,,0.00,meteohub,2013-05-14 22:05:00,
2013-05-14 17:10:00,86.5,43.2,29.76,SSW,202,2.0,8.0,22,0.00,,,0.00,meteohub,2013-05-14 22:10:00,
2013-05-14 17:15:00,86.5,43.2,29.76,SW,225,3.0,8.0,22,0.00,,,0.00,meteohub,2013-05-14 22:15:00,
2013-05-14 17:20:00,86.7,42.1,29.76,South,180,4.0,8.0,21,0.00,,,0.00,meteohub,2013-05-14 22:20:00,
2013-05-14 17:25:00,86.7,40.8,29.76,SSE,158,4.0,9.0,20,0.00,,,0.00,meteohub,2013-05-14 22:25:00,
2013-05-14 17:30:00,86.7,40.8,29.76,SSE,158,6.0,9.0,20,0.00,,,0.00,meteohub,2013-05-14 22:30:00,
2013-05-14 17:35:00,86.9,41.0,29.76,South,180,6.0,9.0,20,0.00,,,0.00,meteohub,2013-05-14 22:35:00,
2013-05-14 17:40:00,87.1,41.2,29.76,South,180,5.0,12.0,20,0.00,,,0.00,meteohub,2013-05-14 22:40:00,
2013-05-14 17:45:00,86.9,41.0,29.76,SSW,202,4.0,12.0,20,0.00,,,0.00,meteohub,2013-05-14 22:45:00,
2013-05-14 17:50:00,86.9,42.3,29.76,SSE,158,6.0,12.0,21,0.00,,,0.00,meteohub,2013-05-14 22:50:00,
2013-05-14 17:55:00,86.7,40.8,29.76,SSE,158,0.0,10.0,20,0.00,,,0.00,meteohub,2013-05-14 22:55:00,
2013-05-14 18:00:00,86.4,40.6,29.76,SW,225,5.0,10.0,20,0.00,,,0.00,meteohub,2013-05-14 23:00:00,
2013-05-14 18:05:00,86.4,39.2,29.76,SSW,202,7.0,11.0,19,0.00,,,0.00,meteohub,2013-05-14 23:05:00,
2013-05-14 18:10:00,86.4,39.2,29.76,West,270,4.0,11.0,19,0.00,,,0.00,meteohub,2013-05-14 23:10:00,
2013-05-14 18:15:00,86.4,39.2,29.76,SSW,202,4.0,11.0,19,0.00,,,0.00,meteohub,2013-05-14 23:15:00,
2013-05-14 18:20:00,86.0,39.0,29.76,SSE,158,5.0,11.0,19,0.00,,,0.00,meteohub,2013-05-14 23:20:00,
2013-05-14 18:25:00,86.0,39.0,29.73,SSE,158,2.0,10.0,19,0.00,,,0.00,meteohub,2013-05-14 23:25:00,
2013-05-14 18:31:00,86.0,39.0,29.73,SE,135,10.0,10.0,19,0.00,,,0.00,meteohub,2013-05-14 23:31:00,
2013-05-14 18:36:00,86.0,39.0,29.73,SSW,202,3.0,11.0,19,0.00,,,0.00,meteohub,2013-05-14 23:36:00,
2013-05-14 18:41:00,85.8,40.1,29.73,SSE,158,7.0,11.0,20,0.00,,,0.00,meteohub,2013-05-14 23:41:00,
2013-05-14 18:46:00,85.8,40.1,29.73,South,180,6.0,11.0,20,0.00,,,0.00,meteohub,2013-05-14 23:46:00,
2013-05-14 18:51:00,85.8,40.1,29.73,SSW,202,4.0,14.0,20,0.00,,,0.00,meteohub,2013-05-14 23:51:00,
2013-05-14 18:56:00,85.8,40.1,29.73,SSW,202,6.0,14.0,20,0.00,,,0.00,meteohub,2013-05-14 23:56:00,
2013-05-14 19:01:00,85.6,39.9,29.73,East,90,9.0,14.0,20,0.00,,,0.00,meteohub,2013-05-15 00:01:00,
2013-05-14 19:06:00,85.5,39.9,29.73,SSE,158,3.0,9.0,20,0.00,,,0.00,meteohub,2013-05-15 00:06:00,
2013-05-14 19:11:00,85.1,39.6,29.73,SSW,202,2.0,9.0,20,0.00,,,0.00,meteohub,2013-05-15 00:11:00,
2013-05-14 19:16:00,84.9,39.4,29.73,SSE,158,2.0,9.0,20,0.00,,,0.00,meteohub,2013-05-15 00:16:00,
2013-05-14 19:21:00,84.4,39.0,29.73,SSE,158,4.0,9.0,20,0.00,,,0.00,meteohub,2013-05-15 00:21:00,
2013-05-14 19:26:00,84.2,38.8,29.73,South,180,0.0,9.0,20,0.00,,,0.00,meteohub,2013-05-15 00:26:00,
2013-05-14 19:31:00,83.8,39.7,29.73,SSE,158,6.0,10.0,21,0.00,,,0.00,meteohub,2013-05-15 00:31:00,
2013-05-14 19:36:00,83.5,39.6,29.73,South,180,6.0,10.0,21,0.00,,,0.00,meteohub,2013-05-15 00:36:00,
2013-05-14 19:41:00,83.1,40.3,29.73,South,180,6.0,13.0,22,0.00,,,0.00,meteohub,2013-05-15 00:41:00,
2013-05-14 19:46:00,82.9,40.3,29.73,SSW,202,2.0,13.0,22,0.00,,,0.00,meteohub,2013-05-15 00:46:00,
2013-05-14 19:51:00,82.4,42.1,29.73,West,270,5.0,13.0,24,0.00,,,0.00,meteohub,2013-05-15 00:51:00,
2013-05-14 19:56:00,82.2,43.9,29.73,South,180,6.0,7.0,26,0.00,,,0.00,meteohub,2013-05-15 00:56:00,
2013-05-14 20:01:00,82.0,44.8,29.73,SSE,158,3.0,9.0,27,0.00,,,0.00,meteohub,2013-05-15 01:01:00,
2013-05-14 20:06:00,81.9,46.6,29.73,South,180,0.0,10.0,29,0.00,,,0.00,meteohub,2013-05-15 01:06:00,
2013-05-14 20:11:00,81.7,47.3,29.73,SW,225,7.0,10.0,30,0.00,,,0.00,meteohub,2013-05-15 01:11:00,
2013-05-14 20:16:00,81.5,47.1,29.73,SSW,202,6.0,10.0,30,0.00,,,0.00,meteohub,2013-05-15 01:16:00,
2013-05-14 20:21:00,81.5,47.1,29.73,South,180,6.0,7.0,30,0.00,,,0.00,meteohub,2013-05-15 01:21:00,
2013-05-14 20:26:00,81.3,47.8,29.73,ESE,112,4.0,7.0,31,0.00,,,0.00,meteohub,2013-05-15 01:26:00,
2013-05-14 20:31:00,81.3,48.7,29.73,SSW,202,6.0,9.0,32,0.00,,,0.00,meteohub,2013-05-15 01:31:00,
2013-05-14 20:36:00,81.3,48.7,29.73,SW,225,0.0,9.0,32,0.00,,,0.00,meteohub,2013-05-15 01:36:00,
2013-05-14 20:42:00,81.1,48.6,29.73,SE,135,2.0,11.0,32,0.00,,,0.00,meteohub,2013-05-15 01:42:00,
2013-05-14 20:47:00,81.0,49.1,29.73,West,270,2.0,11.0,33,0.00,,,0.00,meteohub,2013-05-15 01:47:00,
2013-05-14 20:52:00,80.6,48.9,29.73,SSE,158,2.0,11.0,33,0.00,,,0.00,meteohub,2013-05-15 01:52:00,
2013-05-14 20:57:00,80.6,48.9,29.73,North,0,4.0,6.0,33,0.00,,,0.00,meteohub,2013-05-15 01:57:00,
2013-05-14 21:02:00,81.0,50.7,29.73,West,270,6.0,9.0,35,0.00,,,0.00,meteohub,2013-05-15 02:02:00,
2013-05-14 21:07:00,81.0,50.7,29.73,West,270,5.0,9.0,35,0.00,,,0.00,meteohub,2013-05-15 02:07:00,
2013-05-14 21:12:00,80.6,49.6,29.82,West,270,0.0,10.0,34,0.00,,,0.00,meteohub,2013-05-15 02:12:00,
2013-05-14 21:17:00,80.2,50.9,29.82,West,270,0.0,10.0,36,0.00,,,0.00,meteohub,2013-05-15 02:17:00,
2013-05-14 21:22:00,79.9,51.3,29.82,West,270,0.0,9.0,37,0.00,,,0.00,meteohub,2013-05-15 02:22:00,
2013-05-14 21:27:00,79.5,51.6,29.82,West,270,0.0,5.0,38,0.00,,,0.00,meteohub,2013-05-15 02:27:00,
2013-05-14 21:32:00,79.2,52.2,29.82,WSW,248,4.0,5.0,39,0.00,,,0.00,meteohub,2013-05-15 02:32:00,
2013-05-14 21:37:00,79.0,52.7,29.82,WSW,248,4.0,5.0,40,0.00,,,0.00,meteohub,2013-05-15 02:37:00,
2013-05-14 21:42:00,78.8,52.5,29.79,West,270,0.0,6.0,40,0.00,,,0.00,meteohub,2013-05-15 02:42:00,
2013-05-14 21:47:00,78.6,52.9,29.79,SSW,202,2.0,6.0,41,0.00,,,0.00,meteohub,2013-05-15 02:47:00,
2013-05-14 21:52:00,78.4,52.9,29.79,SSW,202,3.0,6.0,41,0.00,,,0.00,meteohub,2013-05-15 02:52:00,
2013-05-14 21:57:00,78.1,52.5,29.79,SSW,202,0.0,6.0,41,0.00,,,0.00,meteohub,2013-05-15 02:57:00,
2013-05-14 22:02:00,77.9,53.1,29.79,WSW,248,0.0,5.0,42,0.00,,,0.00,meteohub,2013-05-15 03:02:00,
2013-05-14 22:07:00,77.7,52.9,29.79,South,180,3.0,5.0,42,0.00,,,0.00,meteohub,2013-05-15 03:07:00,
2013-05-14 22:12:00,77.5,52.7,29.79,SW,225,0.0,7.0,42,0.00,,,0.00,meteohub,2013-05-15 03:12:00,
2013-05-14 22:17:00,77.5,53.2,29.79,SSW,202,2.0,7.0,43,0.00,,,0.00,meteohub,2013-05-15 03:17:00,
2013-05-14 22:22:00,77.5,54.0,29.79,South,180,2.0,7.0,44,0.00,,,0.00,meteohub,2013-05-15 03:22:00,
2013-05-14 22:27:00,77.4,53.8,29.73,South,180,2.0,6.0,44,0.00,,,0.00,meteohub,2013-05-15 03:27:00,
2013-05-14 22:32:00,77.2,53.6,29.73,SW,225,2.0,7.0,44,0.00,,,0.00,meteohub,2013-05-15 03:32:00,
2013-05-14 22:37:00,77.2,53.6,29.73,East,90,4.0,7.0,44,0.00,,,0.00,meteohub,2013-05-15 03:37:00,
2013-05-14 22:42:00,77.0,53.4,29.76,SSW,202,5.0,8.0,44,0.00,,,0.00,meteohub,2013-05-15 03:42:00,
2013-05-14 22:47:00,76.8,54.0,29.76,NW,315,4.0,8.0,45,0.00,,,0.00,meteohub,2013-05-15 03:47:00,
2013-05-14 22:52:00,76.8,53.2,29.76,South,180,3.0,10.0,44,0.00,,,0.00,meteohub,2013-05-15 03:52:00,
2013-05-14 22:57:00,76.8,53.2,29.76,SE,135,7.0,10.0,44,0.00,,,0.00,meteohub,2013-05-15 03:57:00,
2013-05-14 23:01:00,76.8,53.2,29.76,West,270,4.0,10.0,44,0.00,,,0.00,meteohub,2013-05-15 04:01:00,
2013-05-14 23:06:00,76.6,53.1,29.76,SSE,158,6.0,12.0,44,0.00,,,0.00,meteohub,2013-05-15 04:06:00,
2013-05-14 23:11:00,76.5,52.9,29.76,SSE,158,8.0,12.0,44,0.00,,,0.00,meteohub,2013-05-15 04:11:00,
2013-05-14 23:16:00,76.5,52.3,29.76,SSE,158,4.0,12.0,43,0.00,,,0.00,meteohub,2013-05-15 04:16:00,
2013-05-14 23:21:00,76.3,52.2,29.76,South,180,4.0,10.0,43,0.00,,,0.00,meteohub,2013-05-15 04:21:00,
2013-05-14 23:26:00,76.3,52.2,29.76,SE,135,6.0,10.0,43,0.00,,,0.00,meteohub,2013-05-15 04:26:00,
2013-05-14 23:31:00,76.1,52.0,29.76,South,180,5.0,9.0,43,0.00,,,0.00,meteohub,2013-05-15 04:31:00,
2013-05-14 23:36:00,75.7,52.3,29.76,SSW,202,4.0,9.0,44,0.00,,,0.00,meteohub,2013-05-15 04:36:00,
2013-05-14 23:41:00,75.6,52.2,29.73,SSE,158,5.0,8.0,44,0.00,,,0.00,meteohub,2013-05-15 04:41:00,
2013-05-14 23:46:00,75.6,52.2,29.73,SSW,202,6.0,10.0,44,0.00,,,0.00,meteohub,2013-05-15 04:46:00,
2013-05-14 23:51:00,75.4,52.0,29.73,SSW,202,0.0,10.0,44,0.00,,,0.00,meteohub,2013-05-15 04:51:00,
2013-05-14 23:56:00,75.2,52.3,29.76,WSW,248,8.0,10.0,45,0.00,,,0.00,meteohub,2013-05-15 04:56:00,